Time,TemperatureF,DewpointF,PressureIn,WindDirection,WindDirectionDegrees,WindSpeedMPH,WindSpeedGustMPH,Humidity,HourlyPrecipIn,Conditions,Clouds,dailyrainin,SoftwareType,DateUTC
2013-01-12 00:02:00,-9.0,-13.0,-100.00,ENE,60,1.0,1.0,78,-99.99,,,0.00,,2013-01-12 07:02:00,
2013-01-12 00:12:00,-16.0,-21.0,-100.00,NW,325,0.0,1.0,76,-99.99,,,0.00,,2013-01-12 07:12:00,
2013-01-12 00:32:00,-16.0,-21.0,-100.00,NW,325,0.0,1.0,76,-99.99,,,0.00,,2013-01-12 07:32:00,
2013-01-12 00:52:00,-12.0,-17.0,-100.00,East,95,1.0,4.0,77,-99.99,,,0.00,,2013-01-12 07:52:00,
2013-01-12 01:02:00,-12.0,-17.0,-100.00,East,95,1.0,4.0,77,-99.99,,,0.00,,2013-01-12 08:02:00,
2013-01-12 01:11:00,-16.0,-21.0,-100.00,SW,230,0.0,1.0,76,-99.99,,,0.00,,2013-01-12 08:11:00,
2013-01-12 01:22:00,-16.0,-21.0,-100.00,SW,230,0.0,1.0,76,-99.99,,,0.00,,2013-01-12 08:22:00,
2013-01-12 01:32:00,-16.0,-21.0,-100.00,SW,230,0.0,1.0,76,-99.99,,,0.00,,2013-01-12 08:32:00,
2013-01-12 01:52:00,-14.0,-20.0,-100.00,NNE,25,3.0,4.0,76,-99.99,,,-99.99,,2013-01-12 08:52:00,
2013-01-12 02:02:00,-14.0,-20.0,-100.00,NNE,25,3.0,4.0,76,-99.99,,,-99.99,,2013-01-12 09:02:00,
2013-01-12 02:12:00,-16.0,-21.0,-100.00,North,10,1.0,3.0,75,-99.99,,,0.00,,2013-01-12 09:12:00,
2013-01-12 02:32:00,-16.0,-21.0,-100.00,North,10,1.0,3.0,75,-99.99,,,0.00,,2013-01-12 09:32:00,
2013-01-12 02:52:00,-18.0,-24.0,-100.00,SSW,195,1.0,2.0,74,-99.99,,,0.00,,2013-01-12 09:52:00,
2013-01-12 03:02:00,-18.0,-24.0,-100.00,SSW,195,1.0,2.0,74,-99.99,,,0.00,,2013-01-12 10:02:00,
2013-01-12 03:11:00,-22.0,-27.0,-100.00,NNE,25,0.0,2.0,73,-99.99,,,0.00,,2013-01-12 10:11:00,
2013-01-12 03:22:00,-22.0,-27.0,-100.00,NNE,25,0.0,2.0,73,-99.99,,,0.00,,2013-01-12 10:22:00,
2013-01-12 03:32:00,-22.0,-27.0,-100.00,NNE,25,0.0,2.0,73,-99.99,,,0.00,,2013-01-12 10:32:00,
2013-01-12 05:52:00,-24.0,-30.0,-100.00,North,-999,0.0,0.0,72,-99.99,,,0.00,,2013-01-12 12:52:00,
2013-01-12 06:02:00,-24.0,-30.0,-100.00,North,-999,0.0,0.0,72,-99.99,,,0.00,,2013-01-12 13:02:00,
2013-01-12 06:52:00,-26.0,-32.0,-100.00,SSW,210,0.0,1.0,72,-99.99,,,0.00,,2013-01-12 13:52:00,
2013-01-12 07:02:00,-26.0,-32.0,-100.00,SSW,210,0.0,1.0,72,-99.99,,,0.00,,2013-01-12 14:02:00,
2013-01-12 07:12:00,-26.0,-32.0,-100.00,SW,220,0.0,2.0,71,-99.99,,,-99.99,,2013-01-12 14:12:00,
2013-01-12 07:32:00,-26.0,-32.0,-100.00,SW,220,0.0,2.0,71,-99.99,,,-99.99,,2013-01-12 14:32:00,
2013-01-12 07:53:00,-26.0,-33.0,-100.00,West,275,0.0,1.0,71,-99.99,,,0.00,,2013-01-12 14:53:00,
2013-01-12 08:03:00,-26.0,-33.0,-100.00,West,275,0.0,1.0,71,-99.99,,,0.00,,2013-01-12 15:03:00,
2013-01-12 08:12:00,-27.0,-33.0,-100.00,North,-999,0.0,0.0,71,-99.99,,,0.00,,2013-01-12 15:12:00,
2013-01-12 08:33:00,-25.0,-31.0,-100.00,SSW,210,0.0,1.0,72,-99.99,,,-99.99,,2013-01-12 15:33:00,
2013-01-12 08:52:00,-23.0,-29.0,-100.00,NNE,20,0.0,1.0,72,-99.99,,,0.00,,2013-01-12 15:52:00,
2013-01-12 09:03:00,-23.0,-29.0,-100.00,NNE,20,0.0,1.0,72,-99.99,,,0.00,,2013-01-12 16:03:00,
2013-01-12 09:12:00,-21.0,-27.0,-100.00,North,-999,0.0,0.0,73,-99.99,,,0.00,,2013-01-12 16:12:00,
2013-01-12 09:22:00,-21.0,-27.0,-100.00,North,-999,0.0,0.0,73,-99.99,,,0.00,,2013-01-12 16:22:00,
2013-01-12 09:33:00,-18.0,-24.0,-100.00,NNW,330,0.0,1.0,74,-99.99,,,0.00,,2013-01-12 16:33:00,
2013-01-12 09:52:00,-16.0,-22.0,-100.00,ESE,110,1.0,2.0,75,-99.99,,,0.00,,2013-01-12 16:52:00,
2013-01-12 10:12:00,-15.0,-21.0,-100.00,SSW,195,1.0,2.0,75,-99.99,,,0.00,,2013-01-12 17:12:00,
2013-01-12 10:22:00,-15.0,-21.0,-100.00,SSW,195,1.0,2.0,75,-99.99,,,0.00,,2013-01-12 17:22:00,
2013-01-12 10:33:00,-13.0,-19.0,-100.00,SSW,200,1.0,3.0,75,-99.99,,,0.00,,2013-01-12 17:33:00,
2013-01-12 10:53:00,-13.0,-18.0,-100.00,SSW,210,3.0,3.0,76,-99.99,,,0.00,,2013-01-12 17:53:00,
2013-01-12 11:02:00,-13.0,-18.0,-100.00,SSW,210,3.0,3.0,76,-99.99,,,0.00,,2013-01-12 18:02:00,
2013-01-12 11:12:00,-8.0,-13.0,-100.00,NNE,30,3.0,4.0,77,-99.99,,,0.00,,2013-01-12 18:12:00,
2013-01-12 11:22:00,-8.0,-13.0,-100.00,NNE,30,3.0,4.0,77,-99.99,,,0.00,,2013-01-12 18:22:00,
2013-01-12 11:33:00,-8.0,-13.0,-100.00,NNE,30,3.0,4.0,77,-99.99,,,0.00,,2013-01-12 18:33:00,
2013-01-12 11:42:00,-8.0,-13.0,-100.00,NNE,30,3.0,4.0,77,-99.99,,,0.00,,2013-01-12 18:42:00,
2013-01-12 11:52:00,-6.0,-11.0,-100.00,NNW,335,0.0,1.0,77,-99.99,,,0.00,,2013-01-12 18:52:00,
2013-01-12 12:03:00,-6.0,-11.0,-100.00,NNW,335,0.0,1.0,77,-99.99,,,0.00,,2013-01-12 19:03:00,
2013-01-12 12:12:00,-6.0,-11.0,-100.00,East,90,0.0,1.0,78,-99.99,,,0.00,,2013-01-12 19:12:00,
2013-01-12 12:22:00,-6.0,-11.0,-100.00,East,90,0.0,1.0,78,-99.99,,,0.00,,2013-01-12 19:22:00,
2013-01-12 12:32:00,-6.0,-11.0,-100.00,East,90,0.0,1.0,78,-99.99,,,0.00,,2013-01-12 19:32:00,
2013-01-12 12:52:00,-3.0,-8.0,-100.00,SW,215,1.0,3.0,77,-99.99,,,0.00,,2013-01-12 19:52:00,
2013-01-12 13:32:00,-1.0,-6.0,-100.00,South,190,0.0,3.0,77,-99.99,,,0.00,,2013-01-12 20:32:00,
2013-01-12 13:53:00,5.0,0.0,-100.00,NNE,15,0.0,1.0,80,-99.99,,,0.00,,2013-01-12 20:53:00,
2013-01-12 14:02:00,5.0,0.0,-100.00,NNE,15,0.0,1.0,80,-99.99,,,0.00,,2013-01-12 21:02:00,
2013-01-12 14:12:00,8.0,2.0,-100.00,NW,305,4.0,6.0,75,-99.99,,,0.00,,2013-01-12 21:12:00,
2013-01-12 14:22:00,8.0,2.0,-100.00,NW,305,4.0,6.0,75,-99.99,,,0.00,,2013-01-12 21:22:00,
2013-01-12 14:32:00,9.0,2.0,-100.00,NNW,330,3.0,5.0,72,-99.99,,,0.00,,2013-01-12 21:32:00,
2013-01-12 14:42:00,9.0,2.0,-100.00,NNW,330,3.0,5.0,72,-99.99,,,0.00,,2013-01-12 21:42:00,
2013-01-12 14:52:00,11.0,3.0,-100.00,NW,305,1.0,3.0,71,-99.99,,,0.00,,2013-01-12 21:52:00,
2013-01-12 15:02:00,11.0,3.0,-100.00,NW,305,1.0,3.0,71,-99.99,,,0.00,,2013-01-12 22:02:00,
2013-01-12 15:12:00,9.0,1.0,-100.00,WNW,285,3.0,4.0,68,-99.99,,,0.00,,2013-01-12 22:12:00,
2013-01-12 15:22:00,9.0,1.0,-100.00,WNW,285,3.0,4.0,68,-99.99,,,0.00,,2013-01-12 22:22:00,
2013-01-12 15:32:00,9.0,1.0,-100.00,WNW,285,3.0,4.0,68,-99.99,,,0.00,,2013-01-12 22:32:00,
2013-01-12 15:42:00,9.0,1.0,-100.00,WNW,285,3.0,4.0,68,-99.99,,,0.00,,2013-01-12 22:42:00,
2013-01-12 15:52:00,7.0,0.0,-100.00,SSW,200,2.0,3.0,73,-99.99,,,0.00,,2013-01-12 22:52:00,
2013-01-12 16:02:00,7.0,0.0,-100.00,SSW,200,2.0,3.0,73,-99.99,,,0.00,,2013-01-12 23:02:00,
2013-01-12 16:12:00,8.0,1.0,-100.00,SW,215,1.0,1.0,72,-99.99,,,0.00,,2013-01-12 23:12:00,
2013-01-12 16:22:00,8.0,1.0,-100.00,SW,215,1.0,1.0,72,-99.99,,,0.00,,2013-01-12 23:22:00,
2013-01-12 16:32:00,8.0,1.0,-100.00,SW,215,1.0,1.0,72,-99.99,,,0.00,,2013-01-12 23:32:00,
2013-01-12 16:52:00,9.0,1.0,-100.00,SW,225,0.0,1.0,69,-99.99,,,0.00,,2013-01-12 23:52:00,
2013-01-12 17:02:00,9.0,1.0,-100.00,SW,225,0.0,1.0,69,-99.99,,,0.00,,2013-01-13 00:02:00,
2013-01-12 17:12:00,7.0,-1.0,-100.00,South,190,1.0,3.0,70,-99.99,,,0.00,,2013-01-13 00:12:00,
2013-01-12 17:22:00,7.0,-1.0,-100.00,South,190,1.0,3.0,70,-99.99,,,0.00,,2013-01-13 00:22:00,
2013-01-12 17:32:00,5.0,-2.0,-100.00,SSW,205,0.0,1.0,72,-99.99,,,0.00,,2013-01-13 00:32:00,
2013-01-12 17:42:00,5.0,-2.0,-100.00,SSW,205,0.0,1.0,72,-99.99,,,0.00,,2013-01-13 00:42:00,
2013-01-12 17:52:00,0.0,-5.0,-100.00,East,90,1.0,1.0,76,-99.99,,,0.00,,2013-01-13 00:52:00,
2013-01-12 18:02:00,0.0,-5.0,-100.00,East,90,1.0,1.0,76,-99.99,,,0.00,,2013-01-13 01:02:00,
2013-01-12 18:12:00,0.0,-5.0,-100.00,East,90,1.0,1.0,76,-99.99,,,0.00,,2013-01-13 01:12:00,
2013-01-12 18:22:00,0.0,-5.0,-100.00,East,90,1.0,1.0,76,-99.99,,,0.00,,2013-01-13 01:22:00,
2013-01-12 18:32:00,-3.0,-8.0,-100.00,SSW,205,1.0,2.0,78,-99.99,,,0.00,,2013-01-13 01:32:00,
2013-01-12 18:42:00,-3.0,-8.0,-100.00,SSW,205,1.0,2.0,78,-99.99,,,0.00,,2013-01-13 01:42:00,
2013-01-12 18:52:00,-3.0,-7.0,-100.00,NE,50,1.0,1.0,80,-99.99,,,0.00,,2013-01-13 01:52:00,
2013-01-12 19:02:00,-3.0,-7.0,-100.00,NE,50,1.0,1.0,80,-99.99,,,0.00,,2013-01-13 02:02:00,
2013-01-12 19:12:00,-3.0,-7.0,-100.00,NE,50,1.0,1.0,80,-99.99,,,0.00,,2013-01-13 02:12:00,
2013-01-12 19:22:00,-3.0,-7.0,-100.00,NE,50,1.0,1.0,80,-99.99,,,0.00,,2013-01-13 02:22:00,
2013-01-12 19:32:00,0.0,-4.0,-100.00,ESE,115,0.0,1.0,81,-99.99,,,-99.99,,2013-01-13 02:32:00,
2013-01-12 19:42:00,0.0,-4.0,-100.00,ESE,115,0.0,1.0,81,-99.99,,,-99.99,,2013-01-13 02:42:00,
2013-01-12 19:52:00,0.0,-4.0,-100.00,ESE,115,0.0,1.0,81,-99.99,,,-99.99,,2013-01-13 02:52:00,
2013-01-12 20:12:00,-3.0,-8.0,-100.00,NE,50,1.0,3.0,79,-99.99,,,0.00,,2013-01-13 03:12:00,
2013-01-12 20:22:00,-3.0,-8.0,-100.00,NE,50,1.0,3.0,79,-99.99,,,0.00,,2013-01-13 03:22:00,
2013-01-12 20:32:00,-2.0,-6.0,-100.00,NNE,25,1.0,1.0,80,-99.99,,,-99.99,,2013-01-13 03:32:00,
2013-01-12 20:42:00,-2.0,-6.0,-100.00,NNE,25,1.0,1.0,80,-99.99,,,-99.99,,2013-01-13 03:42:00,
2013-01-12 20:52:00,-2.0,-6.0,-100.00,South,170,1.0,2.0,80,-99.99,,,0.00,,2013-01-13 03:52:00,
2013-01-12 21:02:00,-2.0,-6.0,-100.00,South,170,1.0,2.0,80,-99.99,,,0.00,,2013-01-13 04:02:00,
2013-01-12 21:12:00,-1.0,-5.0,-100.00,SSW,200,1.0,2.0,80,-99.99,,,0.00,,2013-01-13 04:12:00,
2013-01-12 21:22:00,-1.0,-5.0,-100.00,SSW,200,1.0,2.0,80,-99.99,,,0.00,,2013-01-13 04:22:00,
2013-01-12 21:32:00,-1.0,-5.0,-100.00,SSW,200,1.0,2.0,80,-99.99,,,0.00,,2013-01-13 04:32:00,
2013-01-12 21:42:00,-1.0,-5.0,-100.00,SSW,200,1.0,2.0,80,-99.99,,,0.00,,2013-01-13 04:42:00,
2013-01-12 21:53:00,0.0,-5.0,-100.00,East,90,0.0,1.0,81,-99.99,,,0.00,,2013-01-13 04:53:00,
2013-01-12 22:03:00,0.0,-5.0,-100.00,East,90,0.0,1.0,81,-99.99,,,0.00,,2013-01-13 05:03:00,
2013-01-12 22:12:00,-1.0,-5.0,-100.00,North,0,1.0,1.0,80,-99.99,,,0.00,,2013-01-13 05:12:00,
2013-01-12 22:22:00,-1.0,-5.0,-100.00,North,0,1.0,1.0,80,-99.99,,,0.00,,2013-01-13 05:22:00,
2013-01-12 22:32:00,0.0,-4.0,-100.00,North,350,0.0,1.0,81,-99.99,,,-99.99,,2013-01-13 05:32:00,
2013-01-12 22:42:00,0.0,-4.0,-100.00,North,350,0.0,1.0,81,-99.99,,,-99.99,,2013-01-13 05:42:00,
2013-01-12 22:52:00,0.0,-4.0,-100.00,SE,125,1.0,1.0,81,-99.99,,,0.00,,2013-01-13 05:52:00,
2013-01-12 23:02:00,0.0,-4.0,-100.00,SE,125,1.0,1.0,81,-99.99,,,0.00,,2013-01-13 06:02:00,
2013-01-12 23:12:00,0.0,-4.0,-100.00,SSE,150,1.0,1.0,81,-99.99,,,0.00,,2013-01-13 06:12:00,
2013-01-12 23:22:00,0.0,-4.0,-100.00,SSE,150,1.0,1.0,81,-99.99,,,0.00,,2013-01-13 06:22:00,
2013-01-12 23:32:00,0.0,-4.0,-100.00,SSE,150,1.0,1.0,81,-99.99,,,0.00,,2013-01-13 06:32:00,
2013-01-12 23:42:00,0.0,-4.0,-100.00,SSE,150,1.0,1.0,81,-99.99,,,0.00,,2013-01-13 06:42:00,
2013-01-12 23:52:00,0.0,-4.0,-100.00,North,350,1.0,3.0,81,-99.99,,,0.00,,2013-01-13 06:52:00,